TimeMST,TemperatureF,Dew PointF,Humidity,Sea Level PressureIn,VisibilityMPH,Wind Direction,Wind SpeedMPH,Gust SpeedMPH,PrecipitationIn,Events,Conditions,WindDirDegrees,DateUTC
12:51 AM,57.0,43.0,59,29.87,10.0,East,5.8,-,N/A,,Clear,80,2013-02-06 07:51:00
1:51 AM,57.9,42.1,56,29.88,10.0,ESE,6.9,-,N/A,,Clear,110,2013-02-06 08:51:00
2:51 AM,55.9,42.1,60,29.87,10.0,East,5.8,-,N/A,,Clear,90,2013-02-06 09:51:00
3:51 AM,55.0,41.0,59,29.87,10.0,East,8.1,-,N/A,,Clear,100,2013-02-06 10:51:00
4:51 AM,54.0,41.0,62,29.87,10.0,East,5.8,-,N/A,,Clear,100,2013-02-06 11:51:00
5:51 AM,54.0,41.0,62,29.87,10.0,East,4.6,-,N/A,,Partly Cloudy,100,2013-02-06 12:51:00
6:51 AM,54.0,41.0,62,29.88,10.0,ESE,8.1,-,N/A,,Mostly Cloudy,110,2013-02-06 13:51:00
7:51 AM,55.0,41.0,59,29.89,10.0,East,8.1,-,N/A,,Mostly Cloudy,100,2013-02-06 14:51:00
8:51 AM,57.9,41.0,53,29.91,10.0,East,5.8,-,N/A,,Mostly Cloudy,100,2013-02-06 15:51:00
9:51 AM,60.1,42.1,51,29.92,10.0,ESE,5.8,-,N/A,,Mostly Cloudy,110,2013-02-06 16:51:00
10:51 AM,63.0,43.0,48,29.93,10.0,East,4.6,-,N/A,,Scattered Clouds,90,2013-02-06 17:51:00
11:51 AM,66.0,43.0,43,29.92,10.0,Calm,Calm,-,N/A,,Scattered Clouds,0,2013-02-06 18:51:00
12:51 PM,71.1,43.0,36,29.90,10.0,Calm,Calm,-,N/A,,Mostly Cloudy,0,2013-02-06 19:51:00
1:51 PM,70.0,42.1,36,29.88,10.0,Calm,Calm,-,N/A,,Scattered Clouds,0,2013-02-06 20:51:00
2:51 PM,73.0,41.0,31,29.88,10.0,Variable,4.6,-,N/A,,Scattered Clouds,0,2013-02-06 21:51:00
3:51 PM,72.0,39.9,31,29.87,10.0,West,4.6,-,N/A,,Scattered Clouds,280,2013-02-06 22:51:00
4:51 PM,72.0,41.0,33,29.88,10.0,West,9.2,-,N/A,,Scattered Clouds,280,2013-02-06 23:51:00
5:51 PM,71.1,39.9,32,29.90,10.0,West,9.2,-,N/A,,Scattered Clouds,280,2013-02-07 00:51:00
6:51 PM,70.0,41.0,35,29.91,10.0,West,5.8,-,N/A,,Partly Cloudy,260,2013-02-07 01:51:00
7:51 PM,66.0,42.1,42,29.93,10.0,SW,3.5,-,N/A,,Partly Cloudy,230,2013-02-07 02:51:00
8:51 PM,64.0,44.1,48,29.94,10.0,Calm,Calm,-,N/A,,Clear,0,2013-02-07 03:51:00
9:51 PM,62.1,44.1,52,29.95,10.0,East,4.6,-,N/A,,Partly Cloudy,90,2013-02-07 04:51:00
10:51 PM,61.0,44.1,54,29.97,10.0,Calm,Calm,-,N/A,,Partly Cloudy,0,2013-02-07 05:51:00
11:51 PM,60.1,44.1,55,29.98,10.0,Calm,Calm,-,N/A,,Partly Cloudy,0,2013-02-07 06:51:00